Tracking 27188 objects as of 1-Apr-2023
HD Live streaming from Space Station
objects crossing your sky now

STARLINK-5365

Track STARLINK-5365 now!
10-day predictions
STARLINK-5365 is classified as:


NORAD ID: 55498
Int'l Code: 2023-015BB
Perigee: 565.2 km
Apogee: 567.2 km
Inclination: 43.0 °
Period: 95.8 minutes
Semi major axis: 6937 km
RCS: Unknown
Launch date: February 2, 2023
Source: United States (US)
Launch site: AIR FORCE EASTERN TEST RANGE (AFETR)
Your satellite tracking list
Your tracking list is empty




NASA's NSSDC Master Catalog

Two Line Element Set (TLE):
1 55498U 23015BB  23090.77084336 -.00001500  00000-0 -95971-4 0  9997
2 55498  43.0031  53.9252 0001474 278.3126  81.7549 15.02538793  9067
Source of the keplerian elements: AFSPC